H1 CPF 2 NER 2025 10 4 9 277 01 glonass146 H2 2216101 9146 54377 2025 10 4 0 0 0 2025 10 7 23 45 0 900 1 1 0 0 0 1 H9 10 0 60952 0.00000 0 -24354645.011 98136.753 -7638300.254 10 0 60952 900.00000 0 -25119132.524 165216.429 -4539631.975 10 0 60952 1800.00000 0 -25490559.420 304458.450 -1352958.997 10 0 60952 2700.00000 0 -25457501.191 461343.248 1859939.121 10 0 60952 3600.00000 0 -25021853.548 580459.173 5036795.841 10 0 60952 4500.00000 0 -24198746.470 608084.265 8116058.197 10 0 60952 5400.00000 0 -23015925.490 494695.748 11038072.279 10 0 60952 6300.00000 0 -21512626.328 197301.502 13746231.179 10 0 60952 7200.00000 0 -19737989.886 -318504.734 16188063.719 10 0 60952 8100.00000 0 -17749083.534 -1076851.067 18316243.588 10 0 60952 9000.00000 0 -15608610.657 -2090329.642 20089500.107 10 0 60952 9900.00000 0 -13382403.211 -3359226.847 21473413.688 10 0 60952 10800.00000 0 -11136800.765 -4871274.936 22441081.245 10 0 60952 11700.00000 0 -8936024.090 -6601936.957 22973639.132 10 0 60952 12600.00000 0 -6839651.573 -8515214.906 23060633.668 10 0 60952 13500.00000 0 -4900302.488 -10564949.359 22700231.940 10 0 60952 14400.00000 0 -3161622.748 -12696558.515 21899268.336 10 0 60952 15300.00000 0 -1656656.500 -14849146.132 20673125.070 10 0 60952 16200.00000 0 -406671.051 -16957892.249 19045447.911 10 0 60952 17100.00000 0 579515.869 -18956628.393 17047701.348 10 0 60952 18000.00000 0 1305678.394 -20780490.651 14718570.460 10 0 60952 18900.00000 0 1787788.249 -22368540.161 12103219.868 10 0 60952 19800.00000 0 2053100.418 -23666241.130 9252423.056 10 0 60952 20700.00000 0 2138757.307 -24627692.019 6221578.362 10 0 60952 21600.00000 0 2089970.542 -25217515.255 3069630.459 10 0 60952 22500.00000 0 1957857.792 -25412324.873 -142081.500 10 0 60952 23400.00000 0 1797027.048 -25201709.126 -3351026.004 10 0 60952 24300.00000 0 1663011.910 -24588685.562 -6494707.166 10 0 60952 25200.00000 0 1609668.022 -23589608.639 -9511893.443 10 0 60952 26100.00000 0 1686642.671 -22233533.318 -12343821.733 10 0 60952 27000.00000 0 1937026.399 -20561061.377 -14935352.138 10 0 60952 27900.00000 0 2395287.633 -18622719.281 -17236049.782 10 0 60952 28800.00000 0 3085579.158 -16476936.328 -19201171.780 10 0 60952 29700.00000 0 4020489.075 -14187708.734 -20792539.730 10 0 60952 30600.00000 0 5200289.798 -11822048.295 -21979280.706 10 0 60952 31500.00000 0 6612717.237 -9447323.070 -22738422.634 10 0 60952 32400.00000 0 8233289.783 -7128601.560 -23055333.102 10 0 60952 33300.00000 0 10026153.768 -4926111.198 -22923993.913 10 0 60952 34200.00000 0 11945419.958 -2892916.706 -22347106.944 10 0 60952 35100.00000 0 13936935.033 -1072914.113 -21336030.192 10 0 60952 36000.00000 0 15940413.945 500777.336 -19910546.106 10 0 60952 36900.00000 0 17891844.002 1806960.090 -18098467.387 10 0 60952 37800.00000 0 19726060.373 2836994.293 -15935088.500 10 0 60952 38700.00000 0 21379385.690 3594900.485 -13462493.882 10 0 60952 39600.00000 0 22792223.786 4096926.891 -10728736.547 10 0 60952 40500.00000 0 23911499.688 4370601.517 -7786903.139 10 0 60952 41400.00000 0 24692844.419 4453310.663 -4694083.570 10 0 60952 42300.00000 0 25102433.844 4390465.114 -1510265.228 10 0 60952 43200.00000 0 25118405.264 4233332.352 1702826.933 10 0 60952 44100.00000 0 24731793.053 4036626.876 4882922.133 10 0 60952 45000.00000 0 23946944.671 3855960.650 7968404.444 10 0 60952 45900.00000 0 22781399.950 3745261.360 10899499.529 10 0 60952 46800.00000 0 21265238.806 3754267.269 13619424.941 10 0 60952 47700.00000 0 19439924.508 3926204.197 16075482.237 10 0 60952 48600.00000 0 17356690.363 4295742.358 18220070.492 10 0 60952 49500.00000 0 15074536.448 4887319.163 20011602.301 10 0 60952 50400.00000 0 12657918.936 5713898.842 21415305.272 10 0 60952 51300.00000 0 10174227.132 6776221.672 22403894.124 10 0 60952 52200.00000 0 7691151.905 8062575.406 22958100.883 10 0 60952 53100.00000 0 5274053.723 9549099.923 23067053.059 10 0 60952 54000.00000 0 2983438.498 11200614.135 22728492.432 10 0 60952 54900.00000 0 872645.115 12971932.543 21948829.708 10 0 60952 55800.00000 0 -1014159.924 14809618.395 20743033.201 10 0 60952 56700.00000 0 -2643597.868 16654102.075 19134352.609 10 0 60952 57600.00000 0 -3994236.038 18442077.741 17153881.935 10 0 60952 58500.00000 0 -5057240.857 20109079.126 14839968.699 10 0 60952 59400.00000 0 -5836498.212 21592127.236 12237479.621 10 0 60952 60300.00000 0 -6348196.134 22832339.120 9396935.951 10 0 60952 61200.00000 0 -6619887.311 23777387.719 6373534.566 10 0 60952 62100.00000 0 -6689071.162 24383708.465 3226073.570 10 0 60952 63000.00000 0 -6601355.814 24618358.752 15803.431 10 0 60952 63900.00000 0 -6408278.415 24460450.383 -3194773.304 10 0 60952 64800.00000 0 -6164877.158 23902093.307 -6343129.372 10 0 60952 65700.00000 0 -5927119.250 22948809.799 -9367942.126 10 0 60952 66600.00000 0 -5749295.309 21619400.692 -12210299.457 10 0 60952 67500.00000 0 -5681492.221 19945268.844 -14814857.548 10 0 60952 68400.00000 0 -5767253.013 17969228.109 -17130926.794 10 0 60952 69300.00000 0 -6041524.144 15743848.110 -19113463.883 10 0 60952 70200.00000 0 -6528978.130 13329404.740 -20723950.292 10 0 60952 71100.00000 0 -7242783.117 10791522.815 -21931140.045 10 0 60952 72000.00000 0 -8183871.749 8198610.053 -22711662.468 10 0 60952 72900.00000 0 -9340740.354 5619189.924 -23050468.835 10 0 60952 73800.00000 0 -10689786.827 3119244.661 -22941115.059 10 0 60952 74700.00000 0 -12196172.854 759678.888 -22385875.834 10 0 60952 75600.00000 0 -13815174.054 -1405991.303 -21395688.962 10 0 60952 76500.00000 0 -15493961.211 -3333628.796 -19989931.790 10 0 60952 77400.00000 0 -17173737.805 -4990064.104 -18196034.834 10 0 60952 78300.00000 0 -18792144.257 -6354217.936 -16048940.641 10 0 60952 79200.00000 0 -20285828.327 -7417712.984 -13590418.766 10 0 60952 80100.00000 0 -21593074.178 -8184951.587 -10868250.415 10 0 60952 81000.00000 0 -22656380.366 -8672658.171 -7935298.700 10 0 60952 81900.00000 0 -23424879.141 -8908907.701 -4848482.526 10 0 60952 82800.00000 0 -23856496.150 -8931682.638 -1667674.016 10 0 60952 83700.00000 0 -23919760.505 -8787020.502 1545459.258 10 0 60952 84600.00000 0 -23595189.789 -8526831.019 4728645.001 10 0 60952 85500.00000 0 -22876192.280 -8206475.473 7820206.986 10 0 60953 0.00000 0 -21769448.916 -7882210.597 10760252.762 10 0 60953 900.00000 0 -20294758.309 -7608604.628 13491827.300 10 0 60953 1800.00000 0 -18484352.585 -7436034.673 15962006.854 10 0 60953 2700.00000 0 -16381710.112 -7408370.017 18122917.842 10 0 60953 3600.00000 0 -14039915.232 -7560939.146 19932657.762 10 0 60953 4500.00000 0 -11519631.747 -7918865.823 21356102.653 10 0 60953 5400.00000 0 -8886773.333 -8495844.423 22365585.859 10 0 60953 6300.00000 0 -6209966.316 -9293406.593 22941435.445 10 0 60953 7200.00000 0 -3557908.827 -10300710.964 23072360.072 10 0 60953 8100.00000 0 -996734.602 -11494866.127 22755675.772 10 0 60953 9000.00000 0 1412510.354 -12841774.977 21997368.780 10 0 60953 9900.00000 0 3616174.363 -14297466.866 20811992.411 10 0 60953 10800.00000 0 5569994.804 -15809863.583 19222398.908 10 0 60953 11700.00000 0 7240698.398 -17320906.849 17259310.146 10 0 60953 12600.00000 0 8607140.467 -18768959.406 14960734.176 10 0 60953 13500.00000 0 9660935.662 -20091379.866 12371237.663 10 0 60953 14400.00000 0 10406553.644 -21227163.467 9541087.218 10 0 60953 15300.00000 0 10860875.678 -22119537.449 6525275.637 10 0 60953 16200.00000 0 11052230.960 -22718401.151 3382451.648 10 0 60953 17100.00000 0 11018953.575 -22982506.841 173774.122 10 0 60953 18000.00000 0 10807521.620 -22881287.739 -3038286.327 10 0 60953 18900.00000 0 10470358.180 -22396254.838 -6191174.014 10 0 60953 19800.00000 0 10063388.391 -21521901.894 -9223478.067 10 0 60953 20700.00000 0 9643457.512 -20266079.327 -12076140.127 10 0 60953 21600.00000 0 9265720.888 -18649820.398 -14693615.045 10 0 60953 22500.00000 0 8981117.764 -16706626.312 -17024960.848 10 0 60953 23400.00000 0 8834037.256 -14481240.174 -19024835.863 10 0 60953 24300.00000 0 8860276.206 -12027961.367 -20654383.159 10 0 60953 25200.00000 0 9085375.977 -9408571.293 -21881984.995 10 0 60953 26100.00000 0 9523408.735 -6689957.636 -22683872.912 10 0 60953 27000.00000 0 10176264.457 -3941536.677 -23044582.192 10 0 60953 27900.00000 0 11033468.468 -1232581.214 -22957242.682 10 0 60953 28800.00000 0 12072536.777 1370434.755 -22423701.249 10 0 60953 29700.00000 0 13259853.793 3806364.668 -21454474.423 10 0 60953 30600.00000 0 14552035.060 6021687.124 -20068532.995 10 0 60953 31500.00000 0 15897717.352 7972478.425 -18292923.486 10 0 60953 32400.00000 0 17239700.724 9625979.503 -16162234.398 10 0 60953 33300.00000 0 18517352.437 10961693.925 -13717917.975 10 0 60953 34200.00000 0 19669171.893 11971973.213 -11007480.920 10 0 60953 35100.00000 0 20635409.034 12662067.225 -8083559.869 10 0 60953 36000.00000 0 21360626.596 13049639.520 -5002899.584 10 0 60953 36900.00000 0 21796098.901 13163769.926 -1825253.677 10 0 60953 37800.00000 0 21901946.893 13043487.756 1387770.935 10 0 60953 38700.00000 0 21648920.074 12735898.613 4573903.632 10 0 60953 39600.00000 0 21019750.812 12293984.422 7671410.896 10 0 60953 40500.00000 0 20010024.300 11774169.822 10620285.423 10 0 60953 41400.00000 0 18628527.577 11233757.555 13363400.965 10 0 60953 42300.00000 0 16897062.639 10728340.711 15847611.091 10 0 60953 43200.00000 0 14849730.795 10309300.494 18024771.281 10 0 60953 44100.00000 0 12531717.210 10021494.428 19852665.294 10 0 60953 45000.00000 0 9997625.100 9901231.927 21295818.617 10 0 60953 45900.00000 0 7309427.524 9974622.167 22326183.884 10 0 60953 46800.00000 0 4534120.334 10256363.806 22923685.518 10 0 60953 47700.00000 0 1741172.189 10749027.823 23076613.276 10 0 60953 48600.00000 0 -1000124.112 11442864.433 22781856.989 10 0 60953 49500.00000 0 -3623290.510 12316143.365 22044977.550 10 0 60953 50400.00000 0 -6067184.391 13336014.680 20880111.976 10 0 60953 51300.00000 0 -8278297.352 14459855.586 19309713.327 10 0 60953 52200.00000 0 -10212737.024 15637048.311 17364129.229 10 0 60953 53100.00000 0 -11837809.651 16811115.663 15081025.821 10 0 60953 54000.00000 0 -13133137.456 17922125.553 12504667.005 10 0 60953 54900.00000 0 -14091263.964 18909263.820 9685061.883 10 0 60953 55800.00000 0 -14717721.714 19713466.960 6676996.208 10 0 60953 56700.00000 0 -15030559.547 20280003.267 3538966.350 10 0 60953 57600.00000 0 -15059349.427 20560892.425 332036.610 10 0 60953 58500.00000 0 -14843715.131 20517060.028 -2881357.224 10 0 60953 59400.00000 0 -14431445.622 20120134.339 -6038633.850 10 0 60953 60300.00000 0 -13876273.944 19353807.799 -9078296.842 10 0 60953 61200.00000 0 -13235416.941 18214704.402 -11941144.063 10 0 60953 62100.00000 0 -12566981.316 16712714.989 -14571431.267 10 0 60953 63000.00000 0 -11927347.235 14870785.442 -16917966.052 10 0 60953 63900.00000 0 -11368641.465 12724166.143 -18935110.003 10 0 60953 64800.00000 0 -10936407.921 10319153.917 -20583669.036 10 0 60953 65700.00000 0 -10667574.731 7711379.239 -21831654.552 10 0 60953 66600.00000 0 -10588803.948 4963710.557 -22654900.841 10 0 60953 67500.00000 0 -10715293.416 2143863.467 -23037527.358 10 0 60953 68400.00000 0 -11050080.878 -678185.501 -22972237.673 10 0 60953 69300.00000 0 -11583878.988 -3432872.829 -22460450.218 10 0 60953 70200.00000 0 -12295447.346 -6053698.843 -21512259.237 10 0 60953 71100.00000 0 -13152485.101 -8479745.953 -20146227.547 10 0 60953 72000.00000 0 -14113005.815 -10657960.613 -18389015.884 10 0 60953 72900.00000 0 -15127136.146 -12545105.530 -16274856.570 10 0 60953 73800.00000 0 -16139262.266 -14109302.530 -13844882.146 10 0 60953 74700.00000 0 -17090433.485 -15331103.674 -11146322.214 10 0 60953 75600.00000 0 -17920921.937 -16204047.896 -8231584.225 10 0 60953 76500.00000 0 -18572830.730 -16734681.927 -5157236.050 10 0 60953 77400.00000 0 -18992641.017 -16942046.471 -1982910.037 10 0 60953 78300.00000 0 -19133591.145 -16856650.862 1229850.270 10 0 60953 79200.00000 0 -18957788.025 -16518980.626 4418778.597 10 0 60953 80100.00000 0 -18437962.199 -15977601.657 7522086.746 10 0 60953 81000.00000 0 -17558792.883 -15286941.424 10479654.824 10 0 60953 81900.00000 0 -16317747.254 -14504840.772 13234188.301 10 0 60953 82800.00000 0 -14725398.385 -13689979.303 15732320.023 10 0 60953 83700.00000 0 -12805207.843 -12899282.295 17925636.530 10 0 60953 84600.00000 0 -10592781.008 -12185417.718 19771609.556 10 0 60953 85500.00000 0 -8134624.928 -11594488.003 21234415.400 10 0 60954 0.00000 0 -5486459.129 -11164013.092 22285626.902 10 0 60954 900.00000 0 -2711146.499 -10921288.951 22904765.640 10 0 60954 1800.00000 0 123668.039 -10882190.974 23079702.566 10 0 60954 2700.00000 0 2948119.497 -11050472.024 22806901.169 10 0 60954 3600.00000 0 5692777.307 -11417585.867 22091496.518 10 0 60954 4500.00000 0 8291284.928 -11963044.120 20947208.541 10 0 60954 5400.00000 0 10682875.845 -12655292.981 19396090.036 10 0 60954 6300.00000 0 12814662.130 -13453074.198 17468113.011 10 0 60954 7200.00000 0 14643600.643 -14307214.289 15200600.011 10 0 60954 8100.00000 0 16138054.979 -15162767.703 12637510.186 10 0 60954 9000.00000 0 17278887.675 -15961424.228 9828592.791 10 0 60954 9900.00000 0 18060036.722 -16644079.312 6828423.869 10 0 60954 10800.00000 0 18488551.928 -17153458.423 3695344.463 10 0 60954 11700.00000 0 18584089.449 -17436683.690 490321.119 10 0 60954 12600.00000 0 18377885.958 -17447673.089 -2724248.538 10 0 60954 13500.00000 0 17911256.119 -17149269.037 -5885760.948 10 0 60954 14400.00000 0 17233677.691 -16515004.789 -8932637.406 10 0 60954 15300.00000 0 16400546.262 -15530432.245 -11805535.115 10 0 60954 16200.00000 0 15470695.844 -14193953.640 -14448513.601 10 0 60954 17100.00000 0 14503791.473 -12517120.776 -16810132.607 10 0 60954 18000.00000 0 13557705.315 -10524388.242 -18844459.189 10 0 60954 18900.00000 0 12685988.145 -8252330.439 -20511963.932 10 0 60954 19800.00000 0 11935543.698 -5748354.972 -21780288.756 10 0 60954 20700.00000 0 11344604.267 -3068966.231 -22624871.610 10 0 60954 21600.00000 0 10941092.769 -277651.779 -23029416.524 10 0 60954 22500.00000 0 10741439.723 2557520.252 -22986200.685 10 0 60954 23400.00000 0 10749904.108 5366492.706 -22496213.508 10 0 60954 24300.00000 0 10958425.561 8079892.297 -21569125.904 10 0 60954 25200.00000 0 11347012.996 10631673.255 -20223091.255 10 0 60954 26100.00000 0 11884652.103 12961622.592 -18484382.656 10 0 60954 27000.00000 0 12530692.503 15017623.934 -16386874.066 10 0 60954 27900.00000 0 13236655.324 16757587.126 -13971375.804 10 0 60954 28800.00000 0 13948384.459 18150964.812 -11284837.580 10 0 60954 29700.00000 0 14608450.535 19179794.527 -8379434.623 10 0 60954 30600.00000 0 15158706.135 19839224.583 -5311554.674 10 0 60954 31500.00000 0 15542884.639 20137503.529 -2140705.468 10 0 60954 32400.00000 0 15709133.314 20095435.252 1071636.198 10 0 60954 33300.00000 0 15612374.128 19745323.988 4263211.698 10 0 60954 34200.00000 0 15216393.048 19129454.609 7372181.272 10 0 60954 35100.00000 0 14495569.974 18298172.770 10338315.297 10 0 60954 36000.00000 0 13436176.459 17307645.963 13104153.492 10 0 60954 36900.00000 0 12037186.386 16217399.581 15616110.157 10 0 60954 37800.00000 0 10310564.942 15087731.220 17825504.704 10 0 60954 38700.00000 0 8281022.808 13977111.284 19689498.293 10 0 60954 39600.00000 0 5985244.521 12939678.344 21171919.130 10 0 60954 40500.00000 0 3470621.615 12022933.656 22243961.158 10 0 60954 41400.00000 0 793541.420 11265730.874 22884743.117 10 0 60954 42300.00000 0 -1982699.222 10696644.853 23081717.401 10 0 60954 43200.00000 0 -4790270.642 10332787.754 22830920.777 10 0 60954 44100.00000 0 -7559380.630 10179122.234 22137061.686 10 0 60954 45000.00000 0 -10220933.207 10228301.041 21013441.721 10 0 60954 45900.00000 0 -12709166.801 10461040.455 19481711.715 10 0 60954 46800.00000 0 -14964163.088 10847012.853 17571465.932 10 0 60954 47700.00000 0 -16934122.572 11346221.810 15319680.825 10 0 60954 48600.00000 0 -18577312.120 11910802.702 12770007.978 10 0 60954 49500.00000 0 -19863602.980 12487173.536 9971933.787 10 0 60954 50400.00000 0 -20775534.483 13018445.463 6979821.460 10 0 60954 51300.00000 0 -21308858.272 13446990.867 3851853.570 10 0 60954 52200.00000 0 -21472540.008 13717059.828 648895.795 10 0 60954 53100.00000 0 -21288218.051 13777333.003 -2566695.411 10 0 60954 54000.00000 0 -20789142.142 13583301.338 -5732297.119 10 0 60954 54900.00000 0 -20018637.389 13099370.274 -8786251.083 10 0 60954 55800.00000 0 -19028159.205 12300597.589 -11669076.394 10 0 60954 56700.00000 0 -17875022.431 11173989.800 -14324638.657 10 0 60954 57600.00000 0 -16619901.785 9719300.868 -16701251.777 10 0 60954 58500.00000 0 -15324210.349 7949298.376 -18752689.956 10 0 60954 59400.00000 0 -14047467.832 5889485.103 -20439089.741 10 0 60954 60300.00000 0 -12844770.284 3577287.148 -21727724.448 10 0 60954 61200.00000 0 -11764468.265 1060742.340 -22593636.128 10 0 60954 62100.00000 0 -10846151.118 -1603256.308 -23020113.415 10 0 60954 63000.00000 0 -10119021.566 -4351088.817 -22999006.733 10 0 60954 63900.00000 0 -9600728.066 -7114819.442 -22530875.688 10 0 60954 64800.00000 0 -9296702.703 -9824790.620 -21624966.695 10 0 60954 65700.00000 0 -9200030.991 -12412292.132 -20299022.170 10 0 60954 66600.00000 0 -9291857.542 -14812194.997 -18578925.726 10 0 60954 67500.00000 0 -9542309.052 -16965441.430 -16498190.831 10 0 60954 68400.00000 0 -9911894.460 -18821288.316 -14097303.263 10 0 60954 69300.00000 0 -10353322.268 -20339212.081 -11422930.371 10 0 60954 70200.00000 0 -10813657.636 -21490396.984 -8527012.632 10 0 60954 71100.00000 0 -11236727.839 -22258746.316 -5465755.121 10 0 60954 72000.00000 0 -11565674.349 -22641375.750 -2298538.458 10 0 60954 72900.00000 0 -11745543.873 -22648569.736 913229.759 10 0 60954 73800.00000 0 -11725809.099 -22303204.083 4107300.938 10 0 60954 74700.00000 0 -11462713.022 -21639660.016 7221786.094 10 0 60954 75600.00000 0 -10921338.114 -20702276.067 10196348.153 10 0 60954 76500.00000 0 -10077313.209 -19543403.204 12973363.299 10 0 60954 77400.00000 0 -8918086.049 -18221144.920 15499029.389 10 0 60954 78300.00000 0 -7443707.538 -16796876.844 17724400.668 10 0 60954 79200.00000 0 -5667093.931 -15332649.375 19606329.475 10 0 60954 80100.00000 0 -3613754.762 -13888581.494 21108297.437 10 0 60954 81000.00000 0 -1320996.336 -12520354.054 22201120.751 10 0 60954 81900.00000 0 1163367.897 -11276906.705 22863516.425 10 0 60954 82800.00000 0 3782748.358 -10198434.086 23082518.779 10 0 60954 83700.00000 0 6473881.890 -9314764.645 22853738.138 10 0 60954 84600.00000 0 9169220.499 -8644189.646 22181456.290 10 0 60954 85500.00000 0 11799508.850 -8192791.474 21078556.162 10 0 60955 0.00000 0 14296444.739 -7954299.675 19566286.155 10 0 60955 900.00000 0 16595314.324 -7910481.232 17673861.571 10 0 60955 1800.00000 0 18637489.749 -8032049.579 15437911.621 10 0 60955 2700.00000 0 20372689.671 -8280054.333 12901778.691 10 0 60955 3600.00000 0 21760904.749 -8607694.022 10114684.300 10 0 60955 4500.00000 0 22773908.297 -8962475.360 7130776.397 10 0 60955 5400.00000 0 23396288.039 -9288627.702 4008076.276 10 0 60955 6300.00000 0 23625954.904 -9529669.962 807345.624 10 0 60955 7200.00000 0 23474106.861 -9631020.266 -2409103.658 10 0 60955 8100.00000 0 22964649.249 -9542536.480 -5578632.757 10 0 60955 9000.00000 0 22133095.920 -9220878.264 -8639507.358 10 0 60955 9900.00000 0 21024998.176 -8631588.879 -11532111.779 10 0 60955 10800.00000 0 19693968.657 -7750807.028 -14200120.815 10 0 60955 11700.00000 0 18199384.399 -6566534.623 -16591605.339 10 0 60955 12600.00000 0 16603867.129 -5079405.670 -18660049.166 10 0 60955 13500.00000 0 14970647.973 -3302922.784 -20365256.896 10 0 60955 14400.00000 0 13360928.385 -1263150.619 -21674134.938 10 0 60955 15300.00000 0 11831348.762 1002121.385 -22561330.740 10 0 60955 16200.00000 0 10431671.175 3444712.126 -23009718.397 10 0 60955 17100.00000 0 9202773.052 6007822.263 -23010721.983 10 0 60955 18000.00000 0 8175035.129 8628173.935 -22564471.248 10 0 60955 18900.00000 0 7367189.977 11238427.726 -21679787.609 10 0 60955 19800.00000 0 6785677.805 13769776.448 -20374001.564 10 0 60955 20700.00000 0 6424534.788 16154608.140 -18672605.856 10 0 60955 21600.00000 0 6265816.794 18329128.035 -16608751.658 10 0 60955 22500.00000 0 6280538.975 20235831.164 -14222597.996 10 0 60955 23400.00000 0 6430090.156 21825723.539 -11560527.284 10 0 60955 24300.00000 0 6668061.244 23060200.476 -8674242.334 10 0 60955 25200.00000 0 6942409.637 23912504.945 -5619762.361 10 0 60955 26100.00000 0 7197867.764 24368706.286 -2456337.463 10 0 60955 27000.00000 0 7378493.763 24428159.673 754697.478 10 0 60955 27900.00000 0 7430256.568 24103428.269 3951107.432 10 0 60955 28800.00000 0 7303546.320 23419672.299 7070957.626 10 0 60955 29700.00000 0 6955504.314 22413531.441 10053806.768 10 0 60955 30600.00000 0 6352074.285 21131547.774 12841870.460 10 0 60955 31500.00000 0 5469688.539 19628195.536 15381132.760 10 0 60955 32400.00000 0 4296517.686 17963600.010 17622385.022 10 0 60955 33300.00000 0 2833230.764 16201040.530 19522172.686 10 0 60955 34200.00000 0 1093232.905 14404341.369 21043632.346 10 0 60955 35100.00000 0 -897630.850 12635258.693 22157203.624 10 0 60955 36000.00000 0 -3101894.942 10950971.785 22841202.579 10 0 60955 36900.00000 0 -5471783.737 9401782.446 23082245.835 10 0 60955 37800.00000 0 -7950960.526 8029117.823 22875517.209 10 0 60955 38700.00000 0 -10476644.505 6863919.527 22224871.300 10 0 60955 39600.00000 0 -12982009.604 5925486.009 21142771.334 10 0 60955 40500.00000 0 -15398767.127 5220816.588 19650061.427 10 0 60955 41400.00000 0 -17659826.023 4744484.718 17775576.428 10 0 60955 42300.00000 0 -19701920.793 4479046.188 15555595.558 10 0 60955 43200.00000 0 -21468097.752 4395965.458 13033149.114 10 0 60955 44100.00000 0 -22909955.672 4457021.467 10257190.535 10 0 60955 45000.00000 0 -23989546.411 4616133.783 7281649.132 10 0 60955 45900.00000 0 -24680855.216 4821531.805 4164381.456 10 0 60955 46800.00000 0 -24970797.536 5018174.772 966041.746 10 0 60955 47700.00000 0 -24859689.645 5150319.224 -2251105.997 10 0 60955 48600.00000 0 -24361172.560 5164123.843 -5424410.276 10 0 60955 49500.00000 0 -23501592.143 5010179.729 -8492063.736 10 0 60955 50400.00000 0 -22318861.707 4645857.183 -11394318.704 10 0 60955 51300.00000 0 -20860855.430 4037367.859 -14074661.695 10 0 60955 52200.00000 0 -19183401.082 3161453.367 -16480922.762 10 0 60955 53100.00000 0 -17347957.543 2006627.541 -18566297.165 10 0 60955 54000.00000 0 -15419075.786 573918.726 -20290258.953 10 0 60955 54900.00000 0 -13461750.920 -1122920.056 -21619348.548 10 0 60955 55800.00000 0 -11538777.095 -3057742.479 -22527819.211 10 0 60955 56700.00000 0 -9708216.389 -5192868.304 -22998130.418 10 0 60955 57600.00000 0 -8021087.464 -7480434.973 -23021279.335 10 0 60955 58500.00000 0 -6519370.053 -9864184.996 -22596964.872 10 0 60955 59400.00000 0 -5234407.592 -12281614.551 -21733582.069 10 0 60955 60300.00000 0 -4185773.242 -14666393.824 -20448047.806 10 0 60955 61200.00000 0 -3380644.950 -16950958.426 -18765461.967 10 0 60955 62100.00000 0 -2813713.680 -19069164.257 -16718611.235 10 0 60955 63000.00000 0 -2467626.652 -20958895.761 -14347325.533 10 0 60955 63900.00000 0 -2313945.072 -22564519.491 -11697699.898 10 0 60955 64800.00000 0 -2314574.408 -23839081.508 -8821197.003 10 0 60955 65700.00000 0 -2423605.618 -24746157.826 -5773647.746 10 0 60955 66600.00000 0 -2589488.759 -25261281.608 -2614169.306 10 0 60955 67500.00000 0 -2757446.561 -25372888.444 595978.484 10 0 60955 68400.00000 0 -2872025.791 -25082741.138 3794576.418 10 0 60955 69300.00000 0 -2879678.553 -24405817.028 6919646.113 10 0 60955 70200.00000 0 -2731264.612 -23369663.216 9910644.187 10 0 60955 71100.00000 0 -2384369.248 -22013247.059 12709627.723 10 0 60955 72000.00000 0 -1805338.973 -20385350.184 15262368.938 10 0 60955 72900.00000 0 -970949.224 -18542572.963 17519398.146 10 0 60955 73800.00000 0 130366.511 -16547032.396 19436955.567 10 0 60955 74700.00000 0 1497778.481 -14463848.819 20977834.234 10 0 60955 75600.00000 0 3117845.478 -12358525.375 22112098.429 10 0 60955 76500.00000 0 4964833.182 -10294328.491 22817664.225 10 0 60955 77400.00000 0 7001554.565 -8329777.513 23080731.232 10 0 60955 78300.00000 0 9180699.347 -6516347.107 22896057.156 10 0 60955 79200.00000 0 11446599.257 -4896477.400 22267069.532 10 0 60955 80100.00000 0 13737357.577 -3501974.205 21205811.730 10 0 60955 81000.00000 0 15987256.165 -2352865.801 19732723.313 10 0 60955 81900.00000 0 18129341.134 -1456763.879 17876257.701 10 0 60955 82800.00000 0 20098080.361 -808755.511 15672343.243 10 0 60955 83700.00000 0 21831982.440 -391830.830 13163696.821 10 0 60955 84600.00000 0 23276067.450 -177828.625 10399002.129 10 0 60955 85500.00000 0 24384085.715 -128860.068 7431967.794 99